Lid_Strength_Index
12 14 14 14 10 9 8 6 6 7 5 6 7 4 4 2 1 0 0 -0 -0 -1 -1 -1 -1 -1 -1 -1 -1 -1 -1 -1
13 15 13 10 10 8 8 6 6 6 7 5 3 3 2 1 0 1 0 0 -0 -1 -1 -1 -1 -1 -1 -1 -1 -1 -1 -1
14 13 12 9 8 9 9 7 6 6 8 7 3 2 1 1 1 1 0 0 -0 -1 -1 -1 -1 -1 -1 -1 -1 -1 -1 -1
14 13 10 10 8 9 9 9 6 7 8 7 3 3 2 1 1 0 1 0 -0 -1 -1 -1 -1 -1 -1 -1 -1 -1 -1 -1
15 12 11 10 8 8 9 9 7 6 9 6 4 2 1 1 1 0 0 0 -0 -0 -1 -1 -1 -1 -1 -1 -1 -1 -1 -1
14 13 12 9 10 10 9 8 4 4 9 9 4 2 1 1 1 1 0 1 0 -0 0 0 -0 -1 -1 -1 -1 -1 -1 -1
15 14 12 10 12 10 5 6 6 5 5 4 2 2 2 3 2 2 1 1 1 0 -0 0 0 -0 -1 -1 -1 -1 -1 -1
13 12 13 11 9 11 7 8 8 6 4 3 3 3 4 4 4 3 2 1 1 0 0 -0 -0 0 0 -0 0 0 0 0
12 12 11 11 10 9 9 10 8 7 6 4 4 4 4 4 3 3 2 1 1 0 0 0 0 -0 0 0 0 0 0 1
11 10 11 11 9 8 11 11 5 5 4 4 4 4 4 4 3 3 2 2 1 1 1 1 0 0 1 0 0 0 0 0
9 9 10 10 10 9 11 9 9 4 4 5 4 4 3 3 2 2 3 2 1 1 1 2 1 2 2 1 0 0 0 0
9 11 11 10 10 9 10 9 5 5 5 5 4 4 4 3 3 3 2 2 1 2 2 2 2 2 2 1 0 0 0 0
10 10 11 10 11 11 8 9 9 6 5 5 5 4 4 3 3 3 4 3 2 1 1 1 2 1 1 0 0 0 0 0
12 10 10 10 14 10 8 10 9 6 6 5 5 4 4 3 3 3 3 3 2 1 1 1 1 1 0 0 1 2 2 1
13 11 11 11 14 10 8 9 7 7 6 6 6 5 4 3 2 2 2 2 2 1 1 1 1 2 0 1 1 1 1 1
13 13 12 13 14 11 9 9 7 7 7 6 6 5 4 3 2 3 3 3 2 2 1 1 0 1 1 1 2 1 1 0
13 11 12 13 13 11 10 10 8 8 7 7 6 4 4 3 3 2 3 3 2 3 4 3 1 2 2 2 1 1 0 -0
12 10 13 13 13 11 10 10 8 8 8 7 6 5 4 4 4 3 3 3 2 2 2 3 2 1 2 1 1 1 2 3
13 11 12 13 14 12 10 9 8 8 7 6 6 6 5 4 4 3 4 3 2 2 2 2 2 1 0 2 3 4 5 5
11 13 16 12 17 14 11 11 10 9 8 7 6 6 5 5 4 3 3 2 2 2 2 1 1 1 2 2 4 4 4 4